{"data":{"norad_id":59484,"intl_designator":"2024-071A","name":"STARLINK-31753","alt_names":[],"object_type":"PAYLOAD","status":"ACTIVE","operator":null,"country":"US","launch_date":"2024-04-13","launch_site_code":"AFETR","launch_vehicle":null,"mission":null,"orbit_class":"UNKNOWN","rcs_meters":null,"size_class":null,"mass_kg":null,"dimensions":null,"purposes":["comms"],"wikipedia_slug":null,"has_3d_model":false,"image_url":null,"decayed_at":null,"tle_current":{"epoch":"2026-05-25T01:17:45.549024Z","epoch_age_seconds":66496,"freshness":"FRESH","line1":"1 59484U 24071A   26145.05399941 -.00000185  00000+0  27833-5 0  9994","line2":"2 59484  42.9956 268.5633 0001195  55.5397 304.5567 15.27573351119886","mean_motion":15.27573351,"eccentricity":0.0001195,"inclination_deg":42.9956,"raan_deg":268.5633,"arg_perigee_deg":55.5397,"mean_anomaly_deg":304.5567,"bstar":2.7833e-6,"rev_number":11988,"period_min":94.2671590243,"perigee_km":482.24909149216,"apogee_km":483.8889197275,"semimajor_km":6861.2060056098,"source":"CELESTRAK","updated_at":"2026-05-25T13:38:18.952452Z"}}}